Weather History for KHOP - September, 2013

Change the Weather History Date:

Friday, September 20, 2013

  Actual Average Record
Temperature  
Mean Temperature 75 °F -  
Max Temperature 82 °F 78 °F 93 °F (2010)
Min Temperature 68 °F 55 °F 44 °F (2006)
Cooling Degree Days 10    
Growing Degree Days 25 (Base 50)    
Moisture  
Dew Point 70 °F    
Average Humidity 95    
Maximum Humidity 100    
Minimum Humidity 60    
Precipitation  
Precipitation 2.15 in - - ()
Sea Level Pressure  
Sea Level Pressure 29.87 in    
Wind  
Wind Speed 6 mph (NNW)    
Max Wind Speed 13 mph    
Max Gust Speed -    
Visibility 6 miles    
Events Rain    
Averages and records for this station are not official NWS values.
T = Trace of Precipitation, MM = Missing Value Source: NWS Daily Summary

Daily Weather History Graph

Daily Weather History Graph

Search for Another Location

Airport or City:

Trip Planner

Search our weather history database for the weather conditions in past years. The results will help you decide how hot, cold, wet, or windy it might be!

Date:

Astronomy

Sep. 20, 2013 Rise Set
Actual Time 6:36 AM CDT 6:49 PM CDT
Civil Twilight 6:10 AM CDT 7:15 PM CDT
Nautical Twilight 5:40 AM CDT 7:45 PM CDT
Astronomical Twilight 5:09 AM CDT 8:16 PM CDT
Moon 7:26 PM CDT (9/20) 7:47 AM CDT (9/20)
Length of Visible Light 13h 04m
Length of Day
12h 13m
Full, 98% of the Moon is Illuminated
Sep 20
Full
Sep 26
Last Quarter
Oct 4
New
Oct 11
First Quarter
Oct 18
Full

Hourly Weather History & Observations

Time (CDT) Temp. Heat Index Dew Point Humidity Pressure Visibility Wind Dir Wind Speed Gust Speed Precip Events Conditions
12:58 AM 73.4 °F - 67.6 °F 82% 30.00 in 10.0 mi South 6.9 mph - N/A   Partly Cloudy
1:58 AM 72.3 °F - 67.3 °F 84% 30.00 in 10.0 mi South 6.9 mph - N/A   Clear
2:58 AM 72.1 °F - 67.1 °F 84% 29.99 in 10.0 mi SSW 6.9 mph - N/A   Mostly Cloudy
3:58 AM 71.2 °F - 66.9 °F 86% 29.98 in 10.0 mi South 5.8 mph - N/A   Mostly Cloudy
4:58 AM 69.8 °F - 66.6 °F 89% 29.98 in 10.0 mi South 5.8 mph - N/A   Clear
5:58 AM 70.0 °F - 66.0 °F 87% 29.98 in 10.0 mi South 5.8 mph - N/A   Clear
6:58 AM 70.0 °F - 66.0 °F 87% 29.98 in 10.0 mi South 6.9 mph - N/A   Mostly Cloudy
7:58 AM 73.0 °F - 65.8 °F 78% 29.98 in 10.0 mi South 9.2 mph - N/A   Scattered Clouds
8:58 AM 73.8 °F - 65.5 °F 75% 29.98 in 10.0 mi South 11.5 mph - N/A   Clear
9:58 AM 75.9 °F - 67.1 °F 74% 29.98 in 10.0 mi SSW 10.4 mph - N/A   Scattered Clouds
10:58 AM 79.3 °F - 68.4 °F 69% 29.97 in 10.0 mi SSW 12.7 mph - N/A   Partly Cloudy
11:58 AM 80.2 °F 83.1 °F 68.7 °F 68% 29.95 in 10.0 mi South 10.4 mph - N/A   Scattered Clouds
12:58 PM 82.8 °F 85.5 °F 67.5 °F 60% 29.92 in 10.0 mi SW 10.4 mph - N/A   Partly Cloudy
1:58 PM 82.8 °F 86.0 °F 68.5 °F 62% 29.89 in 10.0 mi SW 9.2 mph - N/A   Partly Cloudy
2:58 PM 81.3 °F 84.3 °F 68.7 °F 65% 29.87 in 10.0 mi SW 6.9 mph - N/A   Partly Cloudy
3:51 PM 78.8 °F - 69.8 °F 74% 29.87 in 10.0 mi WSW 8.1 mph - N/A   Light Drizzle
3:58 PM 79.5 °F - 70.9 °F 75% 29.86 in 10.0 mi WSW 8.1 mph - 0.00 in   Light Drizzle
4:39 PM 77.0 °F - 73.4 °F 89% 29.87 in 10.0 mi West 6.9 mph - N/A   Drizzle
4:44 PM 77.0 °F - 73.4 °F 89% 29.87 in 10.0 mi West 6.9 mph - N/A   Light Drizzle
4:46 PM 77.0 °F - 73.4 °F 89% 29.87 in 9.0 mi West 8.1 mph - N/A Rain Light Rain
4:50 PM 75.2 °F - 73.4 °F 94% 29.87 in 8.0 mi West 9.2 mph - N/A Rain Light Rain
4:58 PM 75.4 °F - 74.1 °F 96% 29.86 in 8.0 mi NW 9.2 mph - 0.01 in Rain Light Rain
5:15 PM 73.4 °F - 73.4 °F 100% 29.86 in 10.0 mi NW 5.8 mph - N/A   Drizzle
5:58 PM 72.3 °F - 72.3 °F 100% 29.86 in 10.0 mi NNW 3.5 mph - 0.03 in Rain Light Rain
6:00 PM 71.6 °F - 71.6 °F 100% 29.85 in 10.0 mi NNW 3.5 mph - N/A Rain Light Rain
6:15 PM 71.6 °F - 71.6 °F 100% 29.85 in 9.0 mi North 3.5 mph - N/A Rain Light Rain
6:20 PM 71.6 °F - 71.6 °F 100% 29.85 in 10.0 mi North 4.6 mph - N/A Rain Light Rain
6:25 PM 71.6 °F - 71.6 °F 100% 29.86 in 10.0 mi North 3.5 mph - N/A   Light Drizzle
6:27 PM 71.6 °F - 71.6 °F 100% 29.86 in 10.0 mi NNW 4.6 mph - N/A   Overcast
6:35 PM 71.6 °F - 71.6 °F 100% 29.85 in 10.0 mi North 2.3 mph - N/A   Light Drizzle
6:36 PM 71.6 °F - 71.6 °F 100% 29.85 in 10.0 mi North 3.5 mph - N/A   Light Drizzle
6:40 PM 71.6 °F - 71.6 °F 100% 29.85 in 10.0 mi NNE 3.5 mph - N/A   Light Drizzle
6:42 PM 71.6 °F - 71.6 °F 100% 29.85 in 10.0 mi NNE 4.6 mph - N/A   Light Drizzle
6:45 PM 71.6 °F - 71.6 °F 100% 29.85 in 10.0 mi NNE 4.6 mph - N/A   Mostly Cloudy
6:47 PM 71.6 °F - 71.6 °F 100% 29.85 in 10.0 mi NNE 4.6 mph - N/A   Light Drizzle
6:54 PM 71.6 °F - 71.6 °F 100% 29.85 in 10.0 mi NNE 3.5 mph - N/A Rain Light Rain
6:58 PM 71.1 °F - 71.1 °F 100% 29.85 in 10.0 mi NNE 2.3 mph - 0.02 in Rain Light Rain
7:58 PM 70.5 °F - 70.5 °F 100% 29.83 in 6.0 mi NNE 5.8 mph - 0.08 in Rain Rain
8:12 PM 69.8 °F - 69.8 °F 100% 29.85 in 6.0 mi Variable 1.2 mph - N/A Rain Rain
8:15 PM 69.8 °F - 69.8 °F 100% 29.86 in 5.0 mi SE 5.8 mph - N/A Rain Rain
8:16 PM 69.8 °F - 69.8 °F 100% 29.86 in 4.0 mi SE 8.1 mph - N/A Rain Rain
8:18 PM 69.8 °F - 69.8 °F 100% 29.86 in 3.0 mi SE 8.1 mph - N/A Rain Heavy Rain
8:19 PM 69.8 °F - 69.8 °F 100% 29.85 in 2.5 mi SE 8.1 mph - N/A Rain Heavy Rain
8:21 PM 69.8 °F - 69.8 °F 100% 29.85 in 1.8 mi ESE 8.1 mph - N/A Rain Heavy Rain
8:23 PM 69.8 °F - 69.8 °F 100% 29.85 in 1.5 mi ESE 6.9 mph - N/A Rain Heavy Rain
8:25 PM 71.6 °F - 71.6 °F 100% 29.85 in 1.2 mi ENE 3.5 mph - N/A Rain Heavy Rain
8:27 PM 71.6 °F - 71.6 °F 100% 29.86 in 1.5 mi Variable 2.3 mph - N/A Rain Heavy Rain
8:31 PM 71.6 °F - 71.6 °F 100% 29.86 in 1.2 mi Calm Calm - N/A Rain Heavy Rain
8:35 PM 71.6 °F - 71.6 °F 100% 29.86 in 1.0 mi South 4.6 mph - N/A Rain Heavy Rain
8:36 PM 71.6 °F - 71.6 °F 100% 29.86 in 1.0 mi South 4.6 mph - N/A Rain Heavy Rain
8:42 PM 71.6 °F - 71.6 °F 100% 29.85 in 1.2 mi East 1.2 mph - N/A Rain Heavy Rain
8:43 PM 71.6 °F - 71.6 °F 100% 29.85 in 1.5 mi ESE 2.3 mph - N/A Rain Heavy Rain
8:44 PM 71.6 °F - 71.6 °F 100% 29.85 in 1.5 mi Variable 1.2 mph - N/A Rain Heavy Rain
8:47 PM 71.6 °F - 71.6 °F 100% 29.84 in 2.0 mi NNW 3.5 mph - N/A Rain Heavy Rain
8:50 PM 71.6 °F - 71.6 °F 100% 29.84 in 3.0 mi NNW 8.1 mph - N/A Rain Heavy Rain
8:58 PM 70.7 °F - 70.7 °F 100% 29.83 in 5.0 mi North 9.2 mph - 0.68 in Rain Heavy Rain
9:15 PM 69.8 °F - 69.8 °F 100% 29.83 in 7.0 mi NNE 4.6 mph - N/A Rain Rain
9:24 PM 69.8 °F - 69.8 °F 100% 29.83 in 8.0 mi North 5.8 mph - N/A Rain Rain
9:31 PM 69.8 °F - 69.8 °F 100% 29.83 in 10.0 mi North 6.9 mph - N/A Rain Light Rain
9:35 PM 69.8 °F - 69.8 °F 100% 29.82 in 10.0 mi North 8.1 mph - N/A Rain Light Rain
9:45 PM 69.8 °F - 69.8 °F 100% 29.83 in 6.0 mi NNE 3.5 mph - N/A Rain Heavy Rain
9:49 PM 69.8 °F - 69.8 °F 100% 29.84 in 2.5 mi North 4.6 mph - N/A Rain Heavy Rain
9:51 PM 69.8 °F - 69.8 °F 100% 29.83 in 1.8 mi North 6.9 mph - N/A Rain Heavy Rain
9:53 PM 69.8 °F - 69.8 °F 100% 29.83 in 1.5 mi North 5.8 mph - N/A Rain Heavy Rain
9:55 PM 69.8 °F - 69.8 °F 100% 29.83 in 1.2 mi North 4.6 mph - N/A Rain Heavy Rain
9:58 PM 70.0 °F - 70.0 °F 100% 29.83 in 1.5 mi NNW 4.6 mph - 0.34 in Rain Heavy Rain
10:05 PM 69.8 °F - 69.8 °F 100% 29.85 in 1.2 mi West 4.6 mph - N/A Rain Heavy Rain
10:07 PM 69.8 °F - 69.8 °F 100% 29.85 in 1.2 mi WNW 6.9 mph - N/A Rain Heavy Rain
10:08 PM 69.8 °F - 69.8 °F 100% 29.85 in 1.0 mi WNW 6.9 mph - N/A Rain Heavy Rain
10:15 PM 69.8 °F - 69.8 °F 100% 29.84 in 1.2 mi North 4.6 mph - N/A Rain Heavy Rain
10:17 PM 69.8 °F - 69.8 °F 100% 29.84 in 1.5 mi North 3.5 mph - N/A Rain Heavy Rain
10:19 PM 69.8 °F - 69.8 °F 100% 29.84 in 2.0 mi North 2.3 mph - N/A Rain Heavy Rain
10:21 PM 69.8 °F - 69.8 °F 100% 29.84 in 3.0 mi Variable 2.3 mph - N/A Rain Heavy Rain
10:34 PM 69.8 °F - 69.8 °F 100% 29.84 in 2.5 mi North 6.9 mph - N/A Rain Heavy Rain
10:38 PM 69.8 °F - 69.8 °F 100% 29.83 in 3.0 mi North 9.2 mph - N/A Rain Heavy Rain
10:58 PM 68.9 °F - 68.9 °F 100% 29.82 in 6.0 mi North 8.1 mph - 0.67 in Rain Heavy Rain
11:19 PM 68.0 °F - 68.0 °F 100% 29.83 in 6.0 mi NNW 4.6 mph - N/A Rain Rain
11:23 PM 68.0 °F - 68.0 °F 100% 29.84 in 3.0 mi NW 5.8 mph - N/A Rain Heavy Rain
11:28 PM 68.0 °F - 68.0 °F 100% 29.84 in 2.5 mi NW 6.9 mph - N/A Rain Heavy Rain
11:33 PM 68.0 °F - 68.0 °F 100% 29.84 in 3.0 mi NW 5.8 mph - N/A Rain Heavy Rain
11:58 PM 68.2 °F - 68.2 °F 100% 29.81 in 5.0 mi NNW 5.8 mph - 0.32 in Rain Light Rain